#timestamp,LO_Frequency,Hit,StdDev 
1566306015.1,286047000.5,N
1566306016.0,286047000.5,N
1566306035.8,286047002.2,N
1566306055.7,286047002.0,N
1566306075.5,286047000.5,N
1566306095.3,286046998.2,N
1566306115.2,286046997.7,N
1566306135.9,286046997.5,N
1566306155.7,286046996.2,N
1566306175.6,286046997.9,N
1566306195.4,286046999.1,N
1566306215.3,286047000.7,N
1566306235.1,286047000.2,N
1566306236.0,286047000.2,N
1566306255.8,286047001.0,N
1566306275.7,286047000.3,N
1566306295.5,286047000.9,N
1566306315.3,286047000.1,N
1566306335.2,286047002.4,N
1566306355.0,286047000.7,N
1566306355.9,286047000.7,N
1566306375.7,286046999.2,N
1566306395.6,286046997.6,N
1566306415.4,286046997.0,N
1566306435.3,286046999.6,N
1566306455.1,286046999.6,N
1566306475.8,286046997.5,N
1566306495.7,286046997.1,N
1566306515.5,286046998.3,N
1566306535.4,286047000.6,N
1566306555.2,286047002.7,N
1566306575.0,286047001.9,N
1566306575.9,286047001.9,N
1566306595.8,286047000.0,N
1566306615.6,286047000.9,N
1566306635.4,286046998.9,N
1566306655.3,286046999.6,N
1566306675.1,286046997.1,N
1566306695.9,286046996.6,N
1566306715.7,286046997.0,N
1566306735.5,286046999.4,N
1566306755.4,286046999.6,N
1566306775.2,286047000.5,N
1566306795.1,286046998.8,N
1566306796.0,286046998.8,N
1566306815.8,286046999.4,N
1566306835.6,286046999.5,N
1566306855.5,286046998.6,N
1566306875.3,286046998.4,N
1566306895.1,286046999.1,N
1566306915.9,286047000.5,N
1566306935.7,286047000.7,N
1566306955.6,286046998.6,N
1566306975.4,286046997.0,N
1566306995.2,286047000.5,N
1566307015.1,286046999.8,N
1566307016.0,286046999.8,N
1566307035.8,286047000.3,N
1566307055.6,286047002.4,N
1566307105.5,286047001.2,E
1566307115.4,286046996.7,N
1566307135.3,286046997.9,P
1566307155.1,286046995.8,P
1566307175.9,286046996.7,Y
1566307195.7,286046998.7,P
1566307215.5,286046998.5,N
1566307235.4,286047001.2,N
1566307255.2,286046998.9,N
1566307275.0,286046998.8,N
1566307275.9,286046998.8,N
1566307295.8,286046996.7,N
1566307315.6,286046997.5,N
1566307335.5,286046999.2,N
1566307355.3,286046997.4,N
1566307375.1,286046999.1,N
1566307395.9,286046999.3,N
1566307415.7,286047000.8,N
1566307435.5,286046999.7,N
1566307455.4,286047004.3,Y
1566307475.2,286047002.0,P
1566307495.1,286047002.3,N
1566307496.0,286047002.3,N
1566307515.8,286046999.9,N
1566307535.6,286046998.6,N
1566307555.5,286047000.8,N
1566307575.3,286047000.9,N
1566307595.2,286046999.8,N
1566307615.9,286047000.8,N
1566307635.7,286047000.4,N
1566307655.6,286046998.2,N
1566307675.4,286046998.4,N
1566307695.2,286046997.5,N
1566307715.1,286046996.8,N
1566307716.0,286046996.8,N
1566307735.8,286046997.7,N
1566307755.7,286046997.0,N
1566307775.5,286046996.7,N
1566307795.3,286046998.9,N
1566307815.2,286047001.0,N
1566307835.9,286046998.6,N
1566307855.7,286047001.0,N
1566307875.6,286047000.5,N
1566307895.4,286047001.0,N
1566307915.3,286047000.4,N
1566307935.1,286047000.6,N
1566307936.0,286047000.6,N
1566307955.8,286047000.3,N
1566307975.7,286047002.5,N
1566307995.5,286047001.4,N
1566308015.3,286047001.5,N
1566308035.2,286047001.7,N
1566308055.0,286047003.5,N
1566308055.9,286047003.5,N
1566308075.8,286047000.5,N
1566308095.6,286047002.6,N
1566308115.4,286047000.1,N
1566308135.3,286047000.9,N
1566308155.1,286047001.0,N
1566308175.8,286047002.0,N
1566308195.7,286047001.4,N
1566308215.5,286047003.6,N
1566308235.4,286047006.0,N
1566308255.2,286047004.0,N
1566308275.0,286047005.9,N
1566308275.9,286047005.9,N
1566308295.8,286047007.2,Y
1566308315.6,286047003.9,P
1566308335.5,286047002.7,N
1566308355.3,286047002.6,N
1566308375.1,286047002.1,N
1566308395.9,286047001.6,N
1566308415.7,286047002.1,N
1566308435.5,286046999.9,N
1566308455.4,286047000.4,N
1566308475.2,286047002.1,N
1566308495.1,286047002.2,N
1566308496.0,286047002.2,N
1566308515.8,286046999.7,N
1566308535.6,286047000.3,N
1566308555.5,286046998.3,N
1566308575.3,286046997.5,N
1566308595.1,286046999.5,N
1566308615.9,286046998.6,N
1566308635.7,286047000.9,N
1566308655.6,286047002.0,N
1566308675.4,286047001.0,N
1566308695.2,286047001.1,N
1566308715.1,286047002.3,N
1566308716.0,286047002.3,N
1566308735.8,286047004.1,N
1566308755.6,286047000.1,N
1566308775.5,286046998.8,N
1566308795.3,286046998.6,N
1566308815.2,286046998.7,N
1566308835.9,286046998.3,N
1566308855.7,286047000.8,N
1566308875.6,286046999.9,N
1566308895.4,286047000.2,N
1566308915.3,286047000.7,N
1566308935.1,286046998.8,N
1566308936.0,286046998.8,N
1566308955.8,286047000.4,N
1566308975.7,286047002.5,N
1566308995.5,286047000.1,N
1566309015.3,286047000.0,N
1566309035.2,286047002.3,N
1566309055.0,286047001.9,N
1566309055.9,286047001.9,N
1566309075.8,286047002.2,N
1566309095.6,286047001.9,N
1566309115.4,286047002.2,N
1566309135.3,286047001.9,N
1566309155.1,286047001.7,N
1566309175.8,286047002.1,N
1566309195.7,286047000.2,N
1566309215.5,286047000.0,N
1566309235.4,286047001.1,N
1566309255.2,286046998.3,N
1566309275.0,286046998.9,N
1566309275.9,286046998.9,N
1566309295.8,286047001.1,N
1566309315.6,286047002.4,N
1566309335.5,286046999.9,N
1566309355.3,286047000.5,N
1566309375.1,286047001.0,N
1566309395.9,286047000.7,N
1566309415.7,286046999.3,N
1566309435.5,286046998.8,N
1566309455.4,286046998.3,N
1566309475.2,286046999.3,N
1566309495.1,286047001.2,N
1566309496.0,286047001.2,N
1566309515.8,286047000.8,N
1566309535.6,286047002.4,N
1566309555.5,286047000.9,N
1566309575.3,286047011.9,Y
1566309595.1,286046999.1,P
